contact:dominique.lefevre@mio.osupytheas.fr, maurice.libes@osupytheas.fr, didier.mallarino@osupytheas.fr
Project:EMSO http://www.emso-fr.org/EMSO-France
Depth: 2436.0 m
Title:EMSO Ligure Ouest : Data MII capteur CSTAR
DateTime,Latitude,Longitude,Instrument_Serial,Reference_Counts,Signal_Counts,Corrected_Signal_raw_counts,Calculated_Beam_c_inverse_meters,Internal_thermistor_counts
DateTime,Latitude,Longitude,Instrument_Serial,Reference_Counts,Signal_Counts,Corrected_Signal_raw_counts,Calculated_Beam_c_inverse_meters,Internal_thermistor_counts
2020-11-09T00:00:48,42.805,6.029,CST-1368DR,5811,8132,15071,0.142,551
2020-11-09T00:03:50,42.805,6.029,CST-1368DR,5810,8131,15072,0.142,551
2020-11-09T00:06:51,42.805,6.029,CST-1368DR,5810,8131,15072,0.142,551
2020-11-09T00:09:53,42.805,6.029,CST-1368DR,5810,8131,15072,0.142,551
2020-11-09T00:12:54,42.805,6.029,CST-1368DR,5810,8131,15072,0.142,551
2020-11-09T00:15:56,42.805,6.029,CST-1368DR,5810,8131,15071,0.142,551
2020-11-09T00:18:57,42.805,6.029,CST-1368DR,5810,8131,15072,0.142,551
2020-11-09T00:21:59,42.805,6.029,CST-1368DR,5810,8131,15073,0.142,551
2020-11-09T00:25:01,42.805,6.029,CST-1368DR,5810,8129,15068,0.143,551
2020-11-09T00:28:02,42.805,6.029,CST-1368DR,5810,8130,15071,0.142,551
2020-11-09T00:31:04,42.805,6.029,CST-1368DR,5810,8131,15071,0.142,551
2020-11-09T00:34:05,42.805,6.029,CST-1368DR,5810,8131,15072,0.142,551
2020-11-09T00:37:07,42.805,6.029,CST-1368DR,5810,8131,15071,0.142,551
2020-11-09T00:40:08,42.805,6.029,CST-1368DR,5810,8130,15071,0.142,551
2020-11-09T00:43:10,42.805,6.029,CST-1368DR,5810,8131,15073,0.142,551
2020-11-09T00:46:12,42.805,6.029,CST-1368DR,5810,8132,15074,0.141,551
2020-11-09T00:49:13,42.805,6.029,CST-1368DR,5810,8131,15072,0.142,551
2020-11-09T00:52:15,42.805,6.029,CST-1368DR,5810,8129,15068,0.143,551
2020-11-09T00:55:16,42.805,6.029,CST-1368DR,5810,8131,15072,0.142,551
2020-11-09T00:58:18,42.805,6.029,CST-1368DR,5810,8131,15072,0.142,551
2020-11-09T01:01:20,42.805,6.029,CST-1368DR,5810,8131,15072,0.142,551
2020-11-09T01:04:21,42.805,6.029,CST-1368DR,5810,8131,15072,0.142,551
2020-11-09T01:07:23,42.805,6.029,CST-1368DR,5810,8131,15073,0.142,551
2020-11-09T01:10:24,42.805,6.029,CST-1368DR,5810,8131,15072,0.142,551
2020-11-09T01:13:26,42.805,6.029,CST-1368DR,5810,8132,15074,0.141,551
2020-11-09T01:16:27,42.805,6.029,CST-1368DR,5810,8131,15071,0.142,551
2020-11-09T01:19:29,42.805,6.029,CST-1368DR,5810,8127,15065,0.144,551
2020-11-09T01:22:31,42.805,6.029,CST-1368DR,5810,8131,15073,0.142,551
2020-11-09T01:25:32,42.805,6.029,CST-1368DR,5810,8131,15073,0.142,551
2020-11-09T01:28:34,42.805,6.029,CST-1368DR,5810,8124,15060,0.145,551
2020-11-09T01:31:35,42.805,6.029,CST-1368DR,5810,8129,15069,0.143,551
2020-11-09T01:34:37,42.805,6.029,CST-1368DR,5810,8130,15071,0.142,551
2020-11-09T01:37:38,42.805,6.029,CST-1368DR,5810,8130,15071,0.142,551
2020-11-09T01:40:40,42.805,6.029,CST-1368DR,5810,8131,15072,0.142,551
2020-11-09T01:43:42,42.805,6.029,CST-1368DR,5810,8130,15071,0.142,551
2020-11-09T01:46:43,42.805,6.029,CST-1368DR,5810,8131,15073,0.142,550
2020-11-09T01:49:45,42.805,6.029,CST-1368DR,5810,8130,15071,0.142,551
2020-11-09T01:52:46,42.805,6.029,CST-1368DR,5810,8131,15071,0.142,551
2020-11-09T01:55:48,42.805,6.029,CST-1368DR,5810,8131,15071,0.142,551
2020-11-09T01:58:50,42.805,6.029,CST-1368DR,5810,8131,15072,0.142,551
2020-11-09T02:01:51,42.805,6.029,CST-1368DR,5810,8131,15071,0.142,551
2020-11-09T02:04:53,42.805,6.029,CST-1368DR,5810,8130,15070,0.142,551
2020-11-09T02:07:54,42.805,6.029,CST-1368DR,5810,8131,15072,0.142,551
2020-11-09T02:10:56,42.805,6.029,CST-1368DR,5810,8131,15072,0.142,551
2020-11-09T02:13:57,42.805,6.029,CST-1368DR,5810,8132,15073,0.142,551
2020-11-09T02:16:59,42.805,6.029,CST-1368DR,5810,8131,15071,0.142,551
2020-11-09T02:20:01,42.805,6.029,CST-1368DR,5810,8131,15072,0.142,551
2020-11-09T02:23:02,42.805,6.029,CST-1368DR,5810,8131,15072,0.142,551
2020-11-09T02:26:04,42.805,6.029,CST-1368DR,5810,8131,15071,0.142,551
2020-11-09T02:29:05,42.805,6.029,CST-1368DR,5810,8127,15064,0.144,551
2020-11-09T02:32:07,42.805,6.029,CST-1368DR,5810,8130,15071,0.142,551
2020-11-09T02:35:09,42.805,6.029,CST-1368DR,5810,8131,15072,0.142,551
2020-11-09T02:38:10,42.805,6.029,CST-1368DR,5810,8131,15072,0.142,551
2020-11-09T02:41:12,42.805,6.029,CST-1368DR,5810,8131,15072,0.142,551
2020-11-09T02:44:13,42.805,6.029,CST-1368DR,5810,8131,15073,0.142,551
2020-11-09T02:47:15,42.805,6.029,CST-1368DR,5810,8131,15073,0.142,551
2020-11-09T02:50:16,42.805,6.029,CST-1368DR,5810,8131,15073,0.142,551
2020-11-09T02:53:18,42.805,6.029,CST-1368DR,5810,8131,15073,0.142,551
2020-11-09T02:56:20,42.805,6.029,CST-1368DR,5810,8132,15075,0.141,551
2020-11-09T02:59:21,42.805,6.029,CST-1368DR,5810,8131,15073,0.142,551
2020-11-09T03:02:23,42.805,6.029,CST-1368DR,5810,8131,15071,0.142,551
2020-11-09T03:05:24,42.805,6.029,CST-1368DR,5810,8131,15072,0.142,551
2020-11-09T03:08:26,42.805,6.029,CST-1368DR,5810,8131,15072,0.142,551
2020-11-09T03:11:27,42.805,6.029,CST-1368DR,5810,8131,15072,0.142,551
2020-11-09T03:14:29,42.805,6.029,CST-1368DR,5810,8131,15072,0.142,551
2020-11-09T03:17:31,42.805,6.029,CST-1368DR,5810,8130,15071,0.142,551
2020-11-09T03:20:32,42.805,6.029,CST-1368DR,5810,8129,15069,0.143,551
2020-11-09T03:23:34,42.805,6.029,CST-1368DR,5810,8130,15071,0.142,551
2020-11-09T03:26:35,42.805,6.029,CST-1368DR,5810,8129,15069,0.143,551
2020-11-09T03:29:37,42.805,6.029,CST-1368DR,5810,8130,15071,0.142,551
2020-11-09T03:32:39,42.805,6.029,CST-1368DR,5810,8131,15072,0.142,551
2020-11-09T03:35:40,42.805,6.029,CST-1368DR,5810,8131,15073,0.142,551
2020-11-09T03:38:42,42.805,6.029,CST-1368DR,5810,8130,15071,0.142,551
2020-11-09T03:41:43,42.805,6.029,CST-1368DR,5810,8130,15071,0.142,551
2020-11-09T03:44:45,42.805,6.029,CST-1368DR,5810,8130,15071,0.142,550
2020-11-09T03:47:46,42.805,6.029,CST-1368DR,5810,8130,15071,0.142,551
2020-11-09T03:50:48,42.805,6.029,CST-1368DR,5810,8130,15070,0.142,551
2020-11-09T03:53:50,42.805,6.029,CST-1368DR,5810,8131,15071,0.142,551
2020-11-09T03:56:51,42.805,6.029,CST-1368DR,5810,8129,15068,0.143,551
2020-11-09T03:59:53,42.805,6.029,CST-1368DR,5810,8131,15072,0.142,551
2020-11-09T04:02:54,42.805,6.029,CST-1368DR,5810,8131,15072,0.142,551
2020-11-09T04:05:56,42.805,6.029,CST-1368DR,5810,8129,15068,0.143,551
2020-11-09T04:08:57,42.805,6.029,CST-1368DR,5810,8126,15063,0.144,551
2020-11-09T04:11:59,42.805,6.029,CST-1368DR,5810,8131,15071,0.142,551
2020-11-09T04:15:01,42.805,6.029,CST-1368DR,5810,8125,15062,0.144,551
2020-11-09T04:18:02,42.805,6.029,CST-1368DR,5810,8131,15071,0.142,551
2020-11-09T04:21:04,42.805,6.029,CST-1368DR,5810,8130,15071,0.142,551
2020-11-09T04:24:05,42.805,6.029,CST-1368DR,5810,8131,15071,0.142,551
2020-11-09T04:27:07,42.805,6.029,CST-1368DR,5810,8131,15071,0.142,551
2020-11-09T04:30:09,42.805,6.029,CST-1368DR,5810,8129,15068,0.143,551
2020-11-09T04:33:10,42.805,6.029,CST-1368DR,5810,8131,15072,0.142,551
2020-11-09T04:36:12,42.805,6.029,CST-1368DR,5810,8131,15072,0.142,550
2020-11-09T04:39:13,42.805,6.029,CST-1368DR,5810,8131,15071,0.142,551
2020-11-09T04:42:15,42.805,6.029,CST-1368DR,5810,8127,15065,0.144,551
2020-11-09T04:45:16,42.805,6.029,CST-1368DR,5810,8129,15068,0.143,550
2020-11-09T04:48:18,42.805,6.029,CST-1368DR,5810,8129,15068,0.143,551
2020-11-09T04:51:20,42.805,6.029,CST-1368DR,5810,8130,15071,0.142,551
2020-11-09T04:54:21,42.805,6.029,CST-1368DR,5810,8130,15070,0.142,551
2020-11-09T04:57:23,42.805,6.029,CST-1368DR,5810,8130,15071,0.142,551
2020-11-09T05:00:24,42.805,6.029,CST-1368DR,5810,8131,15071,0.142,551
2020-11-09T05:03:26,42.805,6.029,CST-1368DR,5810,8130,15071,0.142,551
2020-11-09T05:06:28,42.805,6.029,CST-1368DR,5810,8129,15069,0.143,551
2020-11-09T05:09:29,42.805,6.029,CST-1368DR,5810,8130,15070,0.142,551
2020-11-09T05:12:31,42.805,6.029,CST-1368DR,5810,8130,15071,0.142,551
2020-11-09T05:15:32,42.805,6.029,CST-1368DR,5810,8130,15070,0.142,551
2020-11-09T05:18:34,42.805,6.029,CST-1368DR,5810,8131,15071,0.142,551
2020-11-09T05:21:35,42.805,6.029,CST-1368DR,5810,8130,15070,0.142,551
2020-11-09T05:24:37,42.805,6.029,CST-1368DR,5810,8130,15070,0.142,551
2020-11-09T05:27:39,42.805,6.029,CST-1368DR,5810,8126,15063,0.144,551
2020-11-09T05:30:40,42.805,6.029,CST-1368DR,5810,8129,15068,0.143,551
2020-11-09T05:33:42,42.805,6.029,CST-1368DR,5810,8130,15071,0.142,551
2020-11-09T05:36:43,42.805,6.029,CST-1368DR,5810,8129,15069,0.143,551
2020-11-09T05:39:45,42.805,6.029,CST-1368DR,5810,8131,15072,0.142,551
2020-11-09T05:42:46,42.805,6.029,CST-1368DR,5810,8129,15069,0.143,551
2020-11-09T05:45:48,42.805,6.029,CST-1368DR,5810,8129,15069,0.143,551
2020-11-09T05:48:50,42.805,6.029,CST-1368DR,5810,8131,15072,0.142,551
2020-11-09T05:51:51,42.805,6.029,CST-1368DR,5810,8129,15069,0.143,551
2020-11-09T05:54:53,42.805,6.029,CST-1368DR,5810,8130,15071,0.142,551
2020-11-09T05:57:54,42.805,6.029,CST-1368DR,5810,8129,15069,0.143,551
2020-11-09T06:00:56,42.805,6.029,CST-1368DR,5810,8128,15066,0.143,551
2020-11-09T06:03:58,42.805,6.029,CST-1368DR,5810,8130,15071,0.142,551
2020-11-09T06:06:59,42.805,6.029,CST-1368DR,5810,8130,15071,0.142,551
2020-11-09T06:10:01,42.805,6.029,CST-1368DR,5810,8130,15071,0.142,551
2020-11-09T06:13:02,42.805,6.029,CST-1368DR,5810,8129,15068,0.143,551
2020-11-09T06:16:04,42.805,6.029,CST-1368DR,5809,8130,15072,0.142,551
2020-11-09T06:19:05,42.805,6.029,CST-1368DR,5810,8130,15070,0.142,551
2020-11-09T06:22:07,42.805,6.029,CST-1368DR,5810,8130,15070,0.142,551
2020-11-09T06:25:09,42.805,6.029,CST-1368DR,5810,8128,15067,0.143,551
2020-11-09T06:28:10,42.805,6.029,CST-1368DR,5810,8129,15069,0.143,551
2020-11-09T06:31:12,42.805,6.029,CST-1368DR,5810,8129,15069,0.143,551
2020-11-09T06:34:13,42.805,6.029,CST-1368DR,5810,8129,15069,0.143,551
2020-11-09T06:37:15,42.805,6.029,CST-1368DR,5810,8129,15069,0.143,551
2020-11-09T06:40:17,42.805,6.029,CST-1368DR,5810,8130,15070,0.142,551
2020-11-09T06:43:18,42.805,6.029,CST-1368DR,5809,8129,15071,0.142,551
2020-11-09T06:46:20,42.805,6.029,CST-1368DR,5809,8129,15070,0.142,551
2020-11-09T06:49:21,42.805,6.029,CST-1368DR,5810,8129,15069,0.143,551
2020-11-09T06:52:23,42.805,6.029,CST-1368DR,5810,8130,15070,0.142,551
2020-11-09T06:55:24,42.805,6.029,CST-1368DR,5809,8129,15071,0.142,551
2020-11-09T06:58:26,42.805,6.029,CST-1368DR,5810,8128,15066,0.143,551
2020-11-09T07:01:28,42.805,6.029,CST-1368DR,5810,8129,15068,0.143,551
2020-11-09T07:04:29,42.805,6.029,CST-1368DR,5809,8128,15069,0.143,551
2020-11-09T07:07:31,42.805,6.029,CST-1368DR,5809,8129,15071,0.142,551
2020-11-09T07:10:32,42.805,6.029,CST-1368DR,5809,8129,15071,0.142,551
2020-11-09T07:13:34,42.805,6.029,CST-1368DR,5809,8129,15071,0.142,551
2020-11-09T07:16:35,42.805,6.029,CST-1368DR,5809,8129,15071,0.142,551
2020-11-09T07:19:37,42.805,6.029,CST-1368DR,5809,8129,15071,0.142,550
2020-11-09T07:22:39,42.805,6.029,CST-1368DR,5809,8129,15070,0.142,551
2020-11-09T07:25:40,42.805,6.029,CST-1368DR,5809,8129,15071,0.142,551
2020-11-09T07:28:42,42.805,6.029,CST-1368DR,5809,8128,15069,0.143,551
2020-11-09T07:31:43,42.805,6.029,CST-1368DR,5810,8128,15067,0.143,551
2020-11-09T07:34:45,42.805,6.029,CST-1368DR,5810,8129,15069,0.143,551
2020-11-09T07:37:47,42.805,6.029,CST-1368DR,5809,8128,15070,0.142,551
2020-11-09T07:40:48,42.805,6.029,CST-1368DR,5809,8129,15072,0.142,551
2020-11-09T07:43:50,42.805,6.029,CST-1368DR,5809,8129,15071,0.142,551
2020-11-09T07:46:51,42.805,6.029,CST-1368DR,5809,8129,15071,0.142,551
2020-11-09T07:49:53,42.805,6.029,CST-1368DR,5809,8127,15067,0.143,551
2020-11-09T07:52:54,42.805,6.029,CST-1368DR,5809,8129,15070,0.142,551
2020-11-09T07:55:56,42.805,6.029,CST-1368DR,5809,8129,15072,0.142,551
2020-11-09T07:58:58,42.805,6.029,CST-1368DR,5809,8129,15071,0.142,551
2020-11-09T08:01:59,42.805,6.029,CST-1368DR,5809,8128,15070,0.142,551
2020-11-09T08:05:01,42.805,6.029,CST-1368DR,5809,8129,15071,0.142,551
2020-11-09T08:08:02,42.805,6.029,CST-1368DR,5809,8129,15071,0.142,551
2020-11-09T08:11:04,42.805,6.029,CST-1368DR,5809,8125,15063,0.144,551
2020-11-09T08:14:05,42.805,6.029,CST-1368DR,5809,8129,15071,0.142,551
2020-11-09T08:17:07,42.805,6.029,CST-1368DR,5809,8127,15067,0.143,551
2020-11-09T08:20:09,42.805,6.029,CST-1368DR,5809,8128,15070,0.142,551
2020-11-09T08:23:10,42.805,6.029,CST-1368DR,5809,8129,15070,0.142,551
2020-11-09T08:26:12,42.805,6.029,CST-1368DR,5809,8128,15070,0.142,551
2020-11-09T08:29:13,42.805,6.029,CST-1368DR,5809,8129,15071,0.142,551
2020-11-09T08:32:15,42.805,6.029,CST-1368DR,5809,8128,15070,0.142,551
2020-11-09T08:35:17,42.805,6.029,CST-1368DR,5809,8129,15070,0.142,551
2020-11-09T08:38:18,42.805,6.029,CST-1368DR,5809,8129,15070,0.142,551
2020-11-09T08:41:20,42.805,6.029,CST-1368DR,5809,8128,15069,0.143,551
2020-11-09T08:44:21,42.805,6.029,CST-1368DR,5809,8128,15070,0.142,551
2020-11-09T08:47:23,42.805,6.029,CST-1368DR,5809,8128,15069,0.143,551
2020-11-09T08:50:24,42.805,6.029,CST-1368DR,5809,8128,15070,0.142,551
2020-11-09T08:53:26,42.805,6.029,CST-1368DR,5809,8128,15068,0.143,551
2020-11-09T08:56:28,42.805,6.029,CST-1368DR,5809,8129,15070,0.142,551
2020-11-09T08:59:29,42.805,6.029,CST-1368DR,5809,8126,15066,0.143,551
2020-11-09T09:02:31,42.805,6.029,CST-1368DR,5809,8128,15068,0.143,551
2020-11-09T09:05:32,42.805,6.029,CST-1368DR,5809,8128,15070,0.142,551
2020-11-09T09:08:34,42.805,6.029,CST-1368DR,5809,8128,15070,0.142,551
2020-11-09T09:11:35,42.805,6.029,CST-1368DR,5809,8128,15070,0.142,551
2020-11-09T09:14:37,42.805,6.029,CST-1368DR,5809,8128,15069,0.143,551
2020-11-09T09:17:39,42.805,6.029,CST-1368DR,5809,8128,15069,0.143,551
2020-11-09T09:20:40,42.805,6.029,CST-1368DR,5809,8128,15069,0.143,551
2020-11-09T09:23:42,42.805,6.029,CST-1368DR,5809,8127,15067,0.143,551
2020-11-09T09:26:43,42.805,6.029,CST-1368DR,5809,8127,15068,0.143,551
2020-11-09T09:29:45,42.805,6.029,CST-1368DR,5809,8129,15070,0.142,551
2020-11-09T09:32:47,42.805,6.029,CST-1368DR,5809,8128,15069,0.143,551
2020-11-09T09:35:48,42.805,6.029,CST-1368DR,5809,8128,15069,0.143,551
2020-11-09T09:38:50,42.805,6.029,CST-1368DR,5809,8127,15067,0.143,551
2020-11-09T09:41:51,42.805,6.029,CST-1368DR,5809,8128,15069,0.143,551
2020-11-09T09:44:53,42.805,6.029,CST-1368DR,5809,8128,15068,0.143,551
2020-11-09T09:47:54,42.805,6.029,CST-1368DR,5809,8128,15070,0.142,551
2020-11-09T09:50:56,42.805,6.029,CST-1368DR,5809,8128,15069,0.143,551
2020-11-09T09:53:58,42.805,6.029,CST-1368DR,5809,8127,15068,0.143,551
2020-11-09T09:56:59,42.805,6.029,CST-1368DR,5809,8128,15069,0.143,551
2020-11-09T10:00:01,42.805,6.029,CST-1368DR,5809,8127,15067,0.143,551
2020-11-09T10:03:02,42.805,6.029,CST-1368DR,5809,8128,15069,0.143,551
2020-11-09T10:06:04,42.805,6.029,CST-1368DR,5809,8128,15068,0.143,551
2020-11-09T10:09:05,42.805,6.029,CST-1368DR,5809,8128,15069,0.143,551
2020-11-09T10:12:07,42.805,6.029,CST-1368DR,5809,8128,15069,0.143,551
2020-11-09T10:15:09,42.805,6.029,CST-1368DR,5809,8128,15068,0.143,551
2020-11-09T10:18:10,42.805,6.029,CST-1368DR,5809,8128,15068,0.143,551
2020-11-09T10:21:12,42.805,6.029,CST-1368DR,5809,8127,15067,0.143,551
2020-11-09T10:24:13,42.805,6.029,CST-1368DR,5809,8127,15068,0.143,551
2020-11-09T10:27:15,42.805,6.029,CST-1368DR,5809,8129,15070,0.142,551
2020-11-09T10:30:17,42.805,6.029,CST-1368DR,5809,8128,15069,0.143,551
2020-11-09T10:33:18,42.805,6.029,CST-1368DR,5809,8128,15069,0.143,551
2020-11-09T10:36:20,42.805,6.029,CST-1368DR,5809,8126,15065,0.144,551
2020-11-09T10:39:21,42.805,6.029,CST-1368DR,5809,8128,15070,0.142,551
2020-11-09T10:42:23,42.805,6.029,CST-1368DR,5809,8127,15068,0.143,551
2020-11-09T10:45:24,42.805,6.029,CST-1368DR,5809,8128,15068,0.143,551
2020-11-09T10:48:26,42.805,6.029,CST-1368DR,5809,8126,15066,0.143,551
2020-11-09T10:51:28,42.805,6.029,CST-1368DR,5809,8128,15069,0.143,551
2020-11-09T10:54:29,42.805,6.029,CST-1368DR,5809,8127,15067,0.143,551
2020-11-09T10:57:31,42.805,6.029,CST-1368DR,5809,8127,15067,0.143,550
2020-11-09T11:00:32,42.805,6.029,CST-1368DR,5809,8128,15069,0.143,551
2020-11-09T11:03:34,42.805,6.029,CST-1368DR,5809,8128,15068,0.143,551
2020-11-09T11:06:36,42.805,6.029,CST-1368DR,5809,8128,15069,0.143,551
2020-11-09T11:09:37,42.805,6.029,CST-1368DR,5809,8126,15065,0.144,551
2020-11-09T11:12:39,42.805,6.029,CST-1368DR,5809,8128,15068,0.143,551
2020-11-09T11:15:40,42.805,6.029,CST-1368DR,5809,8128,15069,0.143,551
2020-11-09T11:18:42,42.805,6.029,CST-1368DR,5809,8127,15067,0.143,551
2020-11-09T11:21:43,42.805,6.029,CST-1368DR,5809,8128,15068,0.143,551
2020-11-09T11:24:45,42.805,6.029,CST-1368DR,5809,8128,15068,0.143,551
2020-11-09T11:27:47,42.805,6.029,CST-1368DR,5809,8127,15067,0.143,551
2020-11-09T11:30:48,42.805,6.029,CST-1368DR,5809,8128,15068,0.143,551
2020-11-09T11:33:50,42.805,6.029,CST-1368DR,5809,8127,15067,0.143,551
2020-11-09T11:36:51,42.805,6.029,CST-1368DR,5809,8124,15061,0.145,551
2020-11-09T11:39:53,42.805,6.029,CST-1368DR,5809,8128,15068,0.143,551
2020-11-09T11:42:55,42.805,6.029,CST-1368DR,5809,8127,15067,0.143,551
2020-11-09T11:45:56,42.805,6.029,CST-1368DR,5809,8127,15068,0.143,551
2020-11-09T11:48:58,42.805,6.029,CST-1368DR,5809,8128,15068,0.143,551
2020-11-09T11:51:59,42.805,6.029,CST-1368DR,5809,8127,15067,0.143,551
2020-11-09T11:55:01,42.805,6.029,CST-1368DR,5809,8127,15067,0.143,551
2020-11-09T11:58:02,42.805,6.029,CST-1368DR,5809,8127,15067,0.143,551
2020-11-09T12:01:04,42.805,6.029,CST-1368DR,5809,8127,15067,0.143,551
2020-11-09T12:04:06,42.805,6.029,CST-1368DR,5809,8127,15067,0.143,551
2020-11-09T12:07:07,42.805,6.029,CST-1368DR,5809,8128,15068,0.143,551
2020-11-09T12:10:09,42.805,6.029,CST-1368DR,5809,8128,15068,0.143,551
2020-11-09T12:13:10,42.805,6.029,CST-1368DR,5809,8128,15068,0.143,551
2020-11-09T12:16:12,42.805,6.029,CST-1368DR,5809,8127,15068,0.143,551
2020-11-09T12:19:13,42.805,6.029,CST-1368DR,5809,8127,15068,0.143,551
2020-11-09T12:22:15,42.805,6.029,CST-1368DR,5809,8127,15067,0.143,551
2020-11-09T12:25:17,42.805,6.029,CST-1368DR,5809,8127,15067,0.143,551
2020-11-09T12:28:18,42.805,6.029,CST-1368DR,5809,8124,15062,0.144,551
2020-11-09T12:31:20,42.805,6.029,CST-1368DR,5809,8127,15067,0.143,551
2020-11-09T12:34:21,42.805,6.029,CST-1368DR,5809,8126,15066,0.143,551
2020-11-09T12:37:23,42.805,6.029,CST-1368DR,5809,8127,15067,0.143,551
2020-11-09T12:40:25,42.805,6.029,CST-1368DR,5809,8127,15067,0.143,551
2020-11-09T12:43:26,42.805,6.029,CST-1368DR,5809,8128,15068,0.143,551
2020-11-09T12:46:28,42.805,6.029,CST-1368DR,5809,8127,15068,0.143,551
2020-11-09T12:49:29,42.805,6.029,CST-1368DR,5809,8128,15068,0.143,551
2020-11-09T12:52:31,42.805,6.029,CST-1368DR,5809,8128,15069,0.143,551
2020-11-09T12:55:32,42.805,6.029,CST-1368DR,5809,8127,15067,0.143,551
2020-11-09T12:58:34,42.805,6.029,CST-1368DR,5809,8126,15066,0.143,551
2020-11-09T13:01:36,42.805,6.029,CST-1368DR,5809,8128,15068,0.143,551
2020-11-09T13:04:37,42.805,6.029,CST-1368DR,5809,8128,15070,0.142,551
2020-11-09T13:07:39,42.805,6.029,CST-1368DR,5809,8127,15067,0.143,551
2020-11-09T13:10:40,42.805,6.029,CST-1368DR,5809,8128,15069,0.143,551
2020-11-09T13:13:42,42.805,6.029,CST-1368DR,5809,8127,15067,0.143,551
2020-11-09T13:16:44,42.805,6.029,CST-1368DR,5809,8127,15067,0.143,551
2020-11-09T13:19:45,42.805,6.029,CST-1368DR,5809,8128,15069,0.143,551
2020-11-09T13:22:47,42.805,6.029,CST-1368DR,5809,8127,15067,0.143,551
2020-11-09T13:25:48,42.805,6.029,CST-1368DR,5809,8128,15069,0.143,551
2020-11-09T13:28:50,42.805,6.029,CST-1368DR,5809,8127,15068,0.143,551
2020-11-09T13:31:51,42.805,6.029,CST-1368DR,5809,8127,15067,0.143,551
2020-11-09T13:34:53,42.805,6.029,CST-1368DR,5809,8127,15067,0.143,551
2020-11-09T13:37:55,42.805,6.029,CST-1368DR,5809,8126,15066,0.143,551
2020-11-09T13:40:56,42.805,6.029,CST-1368DR,5809,8127,15067,0.143,551
2020-11-09T13:43:58,42.805,6.029,CST-1368DR,5809,8127,15068,0.143,551
2020-11-09T13:46:59,42.805,6.029,CST-1368DR,5808,8127,15069,0.143,551
2020-11-09T13:50:01,42.805,6.029,CST-1368DR,5808,8127,15070,0.142,551
2020-11-09T13:53:02,42.805,6.029,CST-1368DR,5808,8128,15071,0.142,551
2020-11-09T13:56:04,42.805,6.029,CST-1368DR,5809,8128,15069,0.143,551
2020-11-09T13:59:06,42.805,6.029,CST-1368DR,5809,8128,15069,0.143,551
2020-11-09T14:02:07,42.805,6.029,CST-1368DR,5808,8128,15071,0.142,551
2020-11-09T14:05:09,42.805,6.029,CST-1368DR,5808,8128,15072,0.142,551
2020-11-09T14:08:10,42.805,6.029,CST-1368DR,5808,8128,15071,0.142,551
2020-11-09T14:11:12,42.805,6.029,CST-1368DR,5808,8128,15071,0.142,551
2020-11-09T14:14:14,42.805,6.029,CST-1368DR,5808,8128,15071,0.142,551
2020-11-09T14:17:15,42.805,6.029,CST-1368DR,5808,8128,15071,0.142,551
2020-11-09T14:20:17,42.805,6.029,CST-1368DR,5808,8128,15071,0.142,551
2020-11-09T14:23:18,42.805,6.029,CST-1368DR,5809,8128,15069,0.143,550
2020-11-09T14:26:20,42.805,6.029,CST-1368DR,5808,8127,15069,0.143,551
2020-11-09T14:29:21,42.805,6.029,CST-1368DR,5808,8127,15070,0.142,551
2020-11-09T14:32:23,42.805,6.029,CST-1368DR,5808,8128,15071,0.142,551
2020-11-09T14:35:25,42.805,6.029,CST-1368DR,5808,8127,15070,0.142,551
2020-11-09T14:38:26,42.805,6.029,CST-1368DR,5808,8127,15069,0.143,551
2020-11-09T14:41:28,42.805,6.029,CST-1368DR,5808,8128,15072,0.142,551
2020-11-09T14:44:29,42.805,6.029,CST-1368DR,5808,8128,15072,0.142,551
2020-11-09T14:47:31,42.805,6.029,CST-1368DR,5808,8128,15072,0.142,551
2020-11-09T14:50:32,42.805,6.029,CST-1368DR,5808,8127,15070,0.142,551
2020-11-09T14:53:34,42.805,6.029,CST-1368DR,5808,8128,15071,0.142,550
2020-11-09T14:56:36,42.805,6.029,CST-1368DR,5808,8128,15072,0.142,551
2020-11-09T14:59:37,42.805,6.029,CST-1368DR,5808,8127,15069,0.143,551
2020-11-09T15:02:39,42.805,6.029,CST-1368DR,5808,8127,15070,0.142,551
2020-11-09T15:05:40,42.805,6.029,CST-1368DR,5808,8128,15071,0.142,551
2020-11-09T15:08:42,42.805,6.029,CST-1368DR,5808,8127,15070,0.142,551
2020-11-09T15:11:44,42.805,6.029,CST-1368DR,5808,8127,15070,0.142,551
2020-11-09T15:14:45,42.805,6.029,CST-1368DR,5808,8127,15070,0.142,551
2020-11-09T15:17:47,42.805,6.029,CST-1368DR,5808,8128,15072,0.142,551
2020-11-09T15:20:48,42.805,6.029,CST-1368DR,5808,8128,15071,0.142,551
2020-11-09T15:23:50,42.805,6.029,CST-1368DR,5808,8126,15068,0.143,551
2020-11-09T15:26:51,42.805,6.029,CST-1368DR,5808,8127,15070,0.142,551
2020-11-09T15:29:53,42.805,6.029,CST-1368DR,5808,8127,15070,0.142,551
2020-11-09T15:32:55,42.805,6.029,CST-1368DR,5808,8127,15070,0.142,551
2020-11-09T15:35:56,42.805,6.029,CST-1368DR,5808,8127,15070,0.142,551
2020-11-09T15:38:58,42.805,6.029,CST-1368DR,5808,8128,15071,0.142,551
2020-11-09T15:41:59,42.805,6.029,CST-1368DR,5808,8128,15071,0.142,551
2020-11-09T15:45:01,42.805,6.029,CST-1368DR,5808,8128,15072,0.142,551
2020-11-09T15:48:02,42.805,6.029,CST-1368DR,5808,8127,15070,0.142,551
2020-11-09T15:51:04,42.805,6.029,CST-1368DR,5808,8128,15071,0.142,551
2020-11-09T15:54:06,42.805,6.029,CST-1368DR,5808,8128,15071,0.142,551
2020-11-09T15:57:07,42.805,6.029,CST-1368DR,5808,8128,15071,0.142,551
2020-11-09T16:00:09,42.805,6.029,CST-1368DR,5808,8125,15067,0.143,551
2020-11-09T16:03:10,42.805,6.029,CST-1368DR,5808,8127,15070,0.142,551
2020-11-09T16:06:12,42.805,6.029,CST-1368DR,5808,8126,15068,0.143,551
2020-11-09T16:09:14,42.805,6.029,CST-1368DR,5808,8128,15071,0.142,551
2020-11-09T16:12:15,42.805,6.029,CST-1368DR,5808,8128,15072,0.142,551
2020-11-09T16:15:17,42.805,6.029,CST-1368DR,5808,8126,15068,0.143,551
2020-11-09T16:18:18,42.805,6.029,CST-1368DR,5808,8128,15071,0.142,551
2020-11-09T16:21:20,42.805,6.029,CST-1368DR,5808,8128,15071,0.142,551
2020-11-09T16:24:21,42.805,6.029,CST-1368DR,5808,8126,15067,0.143,551
2020-11-09T16:27:23,42.805,6.029,CST-1368DR,5808,8127,15069,0.143,551
2020-11-09T16:30:25,42.805,6.029,CST-1368DR,5808,8128,15071,0.142,551
2020-11-09T16:33:26,42.805,6.029,CST-1368DR,5808,8128,15071,0.142,551
2020-11-09T16:36:28,42.805,6.029,CST-1368DR,5808,8128,15071,0.142,551
2020-11-09T16:39:29,42.805,6.029,CST-1368DR,5808,8127,15069,0.143,551
2020-11-09T16:42:31,42.805,6.029,CST-1368DR,5808,8128,15071,0.142,551
2020-11-09T16:45:32,42.805,6.029,CST-1368DR,5808,8128,15071,0.142,551
2020-11-09T16:48:34,42.805,6.029,CST-1368DR,5808,8127,15070,0.142,551
2020-11-09T16:51:36,42.805,6.029,CST-1368DR,5808,8127,15070,0.142,551